This demonstration page uses our WeatherBlox Daily Observations layout. Learn more.

Left ArrowRight Arrow

Hourly Observations for June 15, 2017

Temp ( °F °C ) Dew Point ( °F °C ) Humidity (%) Winds ( mph kmh ) Pressure ( in mb ) Visibility ( mi km ) Precip ( " mm )
12:07 am 00:07 Partly Cloudy 66 19 66 19 100 100 SE 6 9 29.97 1015 10 16 N/A
12:26 am 00:26 Clear 66 19 66 19 100 100 SE 7 11 29.97 1015 10 16 N/A
12:47 am 00:47 Clear 66 19 66 19 100 100 SE 9 15 29.94 1014 10 16 N/A
1:06 am 01:06 Partly Cloudy 66 19 66 19 100 100 SSW 10 17 29.97 1015 10 16 N/A
1:26 am 01:26 Cloudy 68 20 66 19 94 94 S 13 20 29.97 1015 10 16 N/A
1:47 am 01:47 Cloudy 66 19 66 19 100 100 S 7 11 29.97 1015 5 8 N/A
2:06 am 02:06 Cloudy 66 19 64 18 94 94 W 6 9 29.97 1015 10 16 N/A
2:27 am 02:27 Cloudy 66 19 66 19 100 100 SW 5 7 29.97 1015 7 11 N/A
2:46 am 02:46 Cloudy 66 19 64 18 94 94 SSW 5 7 29.94 1014 5 8 N/A
3:07 am 03:07 Cloudy 66 19 64 18 94 94 S 13 20 29.94 1014 10 16 N/A
3:27 am 03:27 Cloudy 66 19 63 17 88 88 S 10 17 29.94 1014 7 11 N/A
3:46 am 03:46 Cloudy 66 19 64 18 94 94 WNW 6 9 29.94 1014 10 16 N/A
4:07 am 04:07 Cloudy 66 19 64 18 94 94 E 5 7 29.91 1013 5 8 N/A
4:26 am 04:26 Cloudy 66 19 64 18 94 94 ENE 3 6 29.88 1012 7 11 N/A
4:46 am 04:46 Cloudy 66 19 64 18 94 94 N N/A 29.88 1012 7 11 N/A
5:07 am 05:07 Mostly Cloudy 66 19 64 18 94 94 N N/A 29.88 1012 10 16 N/A
5:26 am 05:26 Partly Cloudy 66 19 64 18 94 94 N N/A 29.88 1012 10 16 N/A
5:46 am 05:46 Partly Cloudy 66 19 64 18 94 94 N N/A 29.88 1012 10 16 N/A
6:07 am 06:07 Mostly Cloudy 66 19 64 18 94 94 N N/A 29.88 1012 10 16 N/A
6:26 am 06:26 Cloudy 66 19 64 18 94 94 WSW 5 7 29.88 1012 10 16 N/A
6:47 am 06:47 Partly Cloudy 66 19 64 18 94 94 WSW 3 6 29.88 1012 10 16 N/A
7:07 am 07:07 Partly Cloudy 66 19 64 18 94 94 SSW 6 9 29.88 1012 10 16 N/A
7:26 am 07:26 Mostly Cloudy 66 19 66 19 100 100 SSW 6 9 29.88 1012 10 16 N/A
7:47 am 07:47 Cloudy 68 20 66 19 94 94 SSW 8 13 29.85 1011 10 16 N/A
8:06 am 08:06 Cloudy 68 20 66 19 94 94 WSW 10 17 29.85 1011 10 16 N/A
8:26 am 08:26 Cloudy 68 20 66 19 94 94 WSW 10 17 29.88 1012 10 16 N/A
8:47 am 08:47 Cloudy 68 20 66 19 94 94 WSW 9 15 29.88 1012 10 16 N/A
9:06 am 09:06 Cloudy 68 20 66 19 94 94 W 8 13 29.88 1012 7 11 N/A
9:26 am 09:26 Cloudy 68 20 66 19 94 94 W 9 15 29.88 1012 10 16 N/A
9:47 am 09:47 Cloudy 70 21 66 19 88 88 W 8 13 29.88 1012 10 16 N/A
10:06 am 10:06 Cloudy 70 21 68 20 94 94 W 7 11 29.88 1012 10 16 N/A
10:27 am 10:27 Cloudy 70 21 66 19 88 88 WSW 12 19 29.91 1013 10 16 N/A
10:47 am 10:47 Cloudy 72 22 66 19 83 83 WNW 9 15 29.88 1012 10 16 N/A
11:06 am 11:06 Cloudy 72 22 66 19 83 83 WNW 7 11 29.88 1012 10 16 N/A
11:27 am 11:27 Cloudy 73 23 66 19 78 78 W 6 9 29.88 1012 10 16 N/A
11:46 am 11:46 Mostly Cloudy 73 23 68 20 83 83 N N/A 29.88 1012 10 16 N/A
12:06 pm 12:06 Mostly Cloudy 73 23 66 19 78 78 N N/A 29.88 1012 10 16 N/A
12:27 pm 12:27 Mostly Cloudy 73 23 66 19 78 78 N N/A 29.88 1012 10 16 N/A
12:46 pm 12:46 Partly Cloudy 75 24 66 19 74 74 N N/A 29.88 1012 10 16 N/A
1:07 pm 13:07 Partly Cloudy 77 25 68 20 74 74 N N/A 29.88 1012 10 16 N/A
1:27 pm 13:27 Partly Cloudy 77 25 66 19 69 69 N N/A 29.88 1012 10 16 N/A
1:46 pm 13:46 Mostly Cloudy 79 26 66 19 65 65 N N/A 29.88 1012 10 16 N/A
2:07 pm 14:07 Mostly Cloudy 77 25 66 19 69 69 N N/A 29.91 1013 10 16 N/A
2:26 pm 14:26 Mostly Cloudy 77 25 66 19 69 69 N N/A 29.88 1012 10 16 N/A
2:46 pm 14:46 Partly Cloudy 79 26 66 19 65 65 WSW 3 6 29.88 1012 10 16 N/A
3:07 pm 15:07 Cloudy 79 26 66 19 65 65 N N/A 29.88 1012 10 16 N/A
3:26 pm 15:26 Cloudy 77 25 68 20 74 74 SSW 6 9 29.88 1012 10 16 N/A
3:47 pm 15:47 Mostly Cloudy 77 25 68 20 74 74 S 6 9 29.88 1012 10 16 N/A
4:06 pm 16:06 Mostly Cloudy 77 25 68 20 74 74 S 6 9 29.88 1012 10 16 N/A
4:26 pm 16:26 Mostly Cloudy 77 25 68 20 74 74 N N/A 29.85 1011 10 16 N/A
4:47 pm 16:47 Cloudy 77 25 68 20 74 74 S 5 7 29.85 1011 10 16 N/A
5:06 pm 17:06 Mostly Cloudy 77 25 68 20 74 74 SSW 3 6 29.85 1011 10 16 N/A
5:26 pm 17:26 Partly Cloudy 77 25 68 20 74 74 SSW 5 7 29.85 1011 10 16 N/A
5:47 pm 17:47 Partly Cloudy 77 25 68 20 74 74 SSW 3 6 29.85 1011 10 16 N/A
6:06 pm 18:06 Sunny 77 25 68 20 74 74 SSW 6 9 29.85 1011 10 16 N/A
6:27 pm 18:27 Sunny 79 26 70 21 74 74 SSW 3 6 29.85 1011 10 16 N/A
6:46 pm 18:46 Sunny 79 26 70 21 74 74 W 6 9 29.85 1011 10 16 N/A
7:07 pm 19:07 Sunny 81 27 70 21 70 70 W 6 9 29.85 1011 10 16 N/A
7:27 pm 19:27 Sunny 81 27 68 20 66 66 W 6 9 29.85 1011 10 16 N/A
7:46 pm 19:46 Sunny 79 26 68 20 70 70 W 5 7 29.85 1011 10 16 N/A
8:07 pm 20:07 Partly Cloudy 79 26 68 20 70 70 WSW 6 9 29.85 1011 10 16 N/A
8:26 pm 20:26 Partly Cloudy 77 25 70 21 79 79 SW 5 7 29.85 1011 10 16 N/A
8:46 pm 20:46 Sunny 77 25 68 20 74 74 S 3 6 29.85 1011 10 16 N/A
9:07 pm 21:07 Sunny 77 25 68 20 74 74 SSW 3 6 29.85 1011 10 16 N/A
9:26 pm 21:26 Clear 75 24 68 20 78 78 S 3 6 29.85 1011 10 16 N/A
9:47 pm 21:47 Clear 75 24 68 20 78 78 S 3 6 29.85 1011 10 16 N/A
10:07 pm 22:07 Clear 73 23 68 20 83 83 SSW 3 6 29.85 1011 10 16 N/A
10:26 pm 22:26 Clear 73 23 68 20 83 83 S 3 6 29.85 1011 10 16 N/A
10:47 pm 22:47 Clear 72 22 68 20 88 88 SSW 3 6 29.85 1011 10 16 N/A
11:06 pm 23:06 Clear 72 22 68 20 88 88 S 3 6 29.85 1011 10 16 N/A
11:27 pm 23:27 Clear 72 22 68 20 88 88 SSW 3 6 29.85 1011 10 16 N/A
11:46 pm 23:46 Clear 72 22 68 20 88 88 S 3 6 29.85 1011 10 16 N/A

Powered by AerisWeather